Home   Weather   Port Sudan   Past weeks

Flag for Sudan Past Weather in Port Sudan, Sudan — Yesterday and Last 2 Weeks

Now
90 °F

Clear.


Feels Like: 100 °F
Forecast: 84 / 101 °F
Wind: 7 mph from West

Location: Jeddah King Abdul Aziz International Airport

Current Time: Aug 30, 2016 at 8:23:46 PM

Latest Report: Aug 30, 2016 at 8:00 PM


Visibility: 10 mi

Pressure: 29.62 "Hg

Humidity: 63%

Dew Point: 75 °F

Location of Port SudanLocation

Past Weather in Port Sudan — Graph

°F

Port Sudan Temperature Yesterday

Maximum temperature yesterday: 97 °F (at 12:00 PM)
Minimum temperature yesterday: 86 °F (at 5:00 AM)
Average temperature yesterday: 91 °F

High & Low Weather Summary for the Past Weeks

 TemperatureHumidityPressure
High106 °F (Aug 21, 2:00 PM)94% (Aug 30, 6:00 AM)29.74 "Hg (Aug 30, 6:00 AM)
Low82 °F (Aug 19, 6:00 AM)19% (Aug 24, 1:00 PM)29.56 "Hg (Aug 24, 2:00 PM)
Average92 °F54%29.64 "Hg
* Reported Aug 15 7:00 PM — Aug 30 7:00 PM, Port Sudan, Weather by CustomWeather, © 2016

Note: Actual official high and low records may vary slightly from our data, if they occured in-between our weather recording intervals... More about our weather records

Advertising

Port Sudan Weather History for the Previous 24 Hours

Scroll right to see more
 ConditionsComfort  
Time TempWeatherWind HumidityBarometerVisibility
7:00 PM
Tue, Aug 30
90 °FClear.7 mph63%29.62 "Hg10 mi
6:00 PM91 °FSunny.9 mph59%29.59 "Hg10 mi
5:00 PM93 °FSunny.12 mph56%29.59 "Hg10 mi
4:00 PM95 °FSunny.12 mph56%29.59 "Hg10 mi
3:00 PM95 °FSunny.12 mph56%29.59 "Hg10 mi
2:00 PM99 °FSunny.12 mph50%29.62 "Hg10 mi
1:00 PM97 °FPassing clouds.12 mph53%29.65 "HgN/A
12:00 PM97 °FScattered clouds.10 mph56%29.65 "HgN/A
11:00 AM95 °FScattered clouds.12 mph63%29.68 "HgN/A
10:00 AM93 °FPassing clouds.9 mph63%29.65 "HgN/A
9:00 AM91 °FPassing clouds.7 mph71%29.65 "HgN/A
8:00 AM90 °FScattered clouds.3 mph75%29.65 "HgN/A
7:00 AM86 °FScattered clouds.5 mph79%29.62 "HgN/A
6:00 AM84 °FPassing clouds.5 mph94%29.62 "Hg5 mi
5:00 AM86 °FPassing clouds.5 mph89%29.59 "Hg5 mi
4:00 AM86 °FPassing clouds.5 mph89%29.56 "HgN/A
3:00 AM88 °FPassing clouds.5 mph79%29.56 "HgN/A
2:00 AM88 °FPassing clouds.5 mph79%29.56 "HgN/A
1:00 AM88 °FPassing clouds.No wind79%29.56 "HgN/A
12:00 AM88 °FPassing clouds.No wind79%29.59 "HgN/A
11:00 PM
Mon, Aug 29
90 °FPassing clouds.5 mph75%29.59 "HgN/A
10:00 PM90 °FPassing clouds.7 mph75%29.62 "HgN/A
9:00 PM90 °FPassing clouds.7 mph71%29.62 "HgN/A
8:00 PM91 °FPassing clouds.9 mph67%29.59 "HgN/A
Weather by CustomWeather, © 2016

See weather overviewHow to use our weather pages